Time,TemperatureF,DewpointF,PressureIn,WindDirection,WindDirectionDegrees,WindSpeedMPH,WindSpeedGustMPH,Humidity,HourlyPrecipIn,Conditions,Clouds,dailyrainin,SoftwareType,DateUTC
2013-08-22 00:13:00,54.0,52.0,29.71,ESE,107,6.0,13.0,93,0.00,,,0.00,weatherlink.com 1.10,2013-08-22 09:13:00,
2013-08-22 00:28:00,54.0,52.0,29.71,ESE,115,6.0,9.0,93,0.00,,,0.00,weatherlink.com 1.10,2013-08-22 09:28:00,
2013-08-22 00:43:00,53.9,52.0,29.71,ESE,114,6.0,11.0,93,0.00,,,0.00,weatherlink.com 1.10,2013-08-22 09:43:00,
2013-08-22 00:58:00,53.9,52.0,29.71,East,88,3.0,13.0,93,0.00,,,0.00,weatherlink.com 1.10,2013-08-22 09:58:00,
2013-08-22 01:28:00,54.2,52.0,29.71,ENE,63,6.0,11.0,92,0.00,,,0.00,weatherlink.com 1.10,2013-08-22 10:28:00,
2013-08-22 01:43:00,54.1,52.0,29.71,SE,138,4.0,10.0,92,0.00,,,0.00,weatherlink.com 1.10,2013-08-22 10:43:00,
2013-08-22 03:28:00,54.3,52.0,29.70,SE,143,3.0,14.0,92,0.00,,,0.00,weatherlink.com 1.10,2013-08-22 12:28:00,
2013-08-22 03:43:00,54.2,52.0,29.70,SE,139,9.0,13.0,92,0.00,,,0.00,weatherlink.com 1.10,2013-08-22 12:43:00,
2013-08-22 03:58:00,54.2,52.0,29.70,SE,132,6.0,16.0,92,0.00,,,0.00,weatherlink.com 1.10,2013-08-22 12:58:00,
2013-08-22 04:13:00,54.1,52.0,29.70,South,173,5.0,11.0,92,0.00,,,0.00,weatherlink.com 1.10,2013-08-22 13:13:00,
2013-08-22 04:28:00,54.0,52.0,29.70,East,84,6.0,11.0,92,0.00,,,0.00,weatherlink.com 1.10,2013-08-22 13:28:00,
2013-08-22 04:43:00,54.0,52.0,29.69,ESE,113,4.0,14.0,92,0.00,,,0.00,weatherlink.com 1.10,2013-08-22 13:43:00,
2013-08-22 04:58:00,54.0,52.0,29.69,ENE,71,4.0,14.0,92,0.00,,,0.00,weatherlink.com 1.10,2013-08-22 13:58:00,
2013-08-22 05:13:00,53.9,52.0,29.70,ESE,122,5.0,11.0,92,0.00,,,0.00,weatherlink.com 1.10,2013-08-22 14:13:00,
2013-08-22 05:28:00,53.9,52.0,29.69,ESE,121,6.0,15.0,92,0.00,,,0.00,weatherlink.com 1.10,2013-08-22 14:28:00,
2013-08-22 05:43:00,54.0,52.0,29.69,SE,126,6.0,11.0,92,0.00,,,0.00,weatherlink.com 1.10,2013-08-22 14:43:00,
2013-08-22 05:58:00,54.0,52.0,29.69,ESE,113,8.0,16.0,92,0.00,,,0.00,weatherlink.com 1.10,2013-08-22 14:58:00,
2013-08-22 06:13:00,54.0,52.0,29.70,ENE,69,4.0,10.0,92,0.00,,,0.00,weatherlink.com 1.10,2013-08-22 15:13:00,
2013-08-22 06:28:00,54.0,52.0,29.70,NNE,26,3.0,11.0,92,0.00,,,0.00,weatherlink.com 1.10,2013-08-22 15:28:00,
2013-08-22 06:43:00,54.0,52.0,29.69,East,97,7.0,9.0,92,0.00,,,0.00,weatherlink.com 1.10,2013-08-22 15:43:00,
2013-08-22 06:58:00,54.1,52.0,29.70,East,86,2.0,10.0,92,0.00,,,0.00,weatherlink.com 1.10,2013-08-22 15:58:00,
2013-08-22 07:14:00,54.2,52.0,29.70,ESE,114,5.0,11.0,92,0.00,,,0.00,weatherlink.com 1.10,2013-08-22 16:14:00,
2013-08-22 07:29:00,54.3,52.0,29.70,East,91,2.0,10.0,92,0.00,,,0.00,weatherlink.com 1.10,2013-08-22 16:29:00,
2013-08-22 07:44:00,54.4,52.0,29.69,East,98,4.0,9.0,92,0.00,,,0.00,weatherlink.com 1.10,2013-08-22 16:44:00,
2013-08-22 07:59:00,54.7,53.0,29.70,ESE,119,5.0,10.0,92,0.00,,,0.00,weatherlink.com 1.10,2013-08-22 16:59:00,
2013-08-22 08:14:00,54.8,53.0,29.70,SSE,148,1.0,11.0,92,0.00,,,0.00,weatherlink.com 1.10,2013-08-22 17:14:00,
2013-08-22 08:29:00,55.0,53.0,29.70,ESE,107,6.0,9.0,92,0.00,,,0.00,weatherlink.com 1.10,2013-08-22 17:29:00,
2013-08-22 08:44:00,55.1,53.0,29.70,East,84,5.0,10.0,92,0.00,,,0.00,weatherlink.com 1.10,2013-08-22 17:44:00,
2013-08-22 08:59:00,55.2,53.0,29.70,ESE,115,3.0,13.0,91,0.00,,,0.00,weatherlink.com 1.10,2013-08-22 17:59:00,
2013-08-22 09:14:00,55.1,53.0,29.70,ENE,72,3.0,9.0,92,0.00,,,0.00,weatherlink.com 1.10,2013-08-22 18:14:00,
2013-08-22 09:29:00,55.1,53.0,29.71,SE,137,6.0,11.0,93,0.00,,,0.00,weatherlink.com 1.10,2013-08-22 18:29:00,
2013-08-22 09:44:00,55.0,53.0,29.71,SSE,151,7.0,10.0,93,0.00,,,0.00,weatherlink.com 1.10,2013-08-22 18:44:00,
2013-08-22 09:59:00,54.9,53.0,29.71,ESE,117,7.0,12.0,93,0.00,,,0.00,weatherlink.com 1.10,2013-08-22 18:59:00,
2013-08-22 10:14:00,55.0,53.0,29.71,ESE,108,4.0,13.0,93,0.00,,,0.00,weatherlink.com 1.10,2013-08-22 19:14:00,
2013-08-22 10:29:00,55.0,53.0,29.72,SE,142,4.0,11.0,93,0.00,,,0.00,weatherlink.com 1.10,2013-08-22 19:29:00,
2013-08-22 10:44:00,55.0,53.0,29.71,SE,126,4.0,12.0,93,0.00,,,0.00,weatherlink.com 1.10,2013-08-22 19:44:00,
2013-08-22 10:59:00,55.0,53.0,29.71,ESE,107,1.0,9.0,94,0.00,,,0.00,weatherlink.com 1.10,2013-08-22 19:59:00,
2013-08-22 11:14:00,55.3,53.0,29.71,SE,130,4.0,8.0,93,0.00,,,0.00,weatherlink.com 1.10,2013-08-22 20:14:00,
2013-08-22 11:29:00,55.5,54.0,29.71,East,81,6.0,10.0,93,0.00,,,0.00,weatherlink.com 1.10,2013-08-22 20:29:00,
2013-08-22 11:44:00,55.6,53.0,29.71,ESE,115,4.0,10.0,92,0.00,,,0.00,weatherlink.com 1.10,2013-08-22 20:44:00,
2013-08-22 11:59:00,55.8,54.0,29.71,ESE,113,4.0,10.0,92,0.00,,,0.00,weatherlink.com 1.10,2013-08-22 20:59:00,
2013-08-22 12:14:00,56.2,54.0,29.71,ESE,118,12.0,12.0,92,0.00,,,0.00,weatherlink.com 1.10,2013-08-22 21:14:00,
2013-08-22 12:29:00,56.3,54.0,29.71,SE,132,9.0,10.0,91,0.00,,,0.00,weatherlink.com 1.10,2013-08-22 21:29:00,
2013-08-22 12:44:00,56.7,54.0,29.72,ESE,121,4.0,13.0,90,0.00,,,0.00,weatherlink.com 1.10,2013-08-22 21:44:00,
2013-08-22 12:59:00,57.1,54.0,29.71,ESE,110,6.0,11.0,90,0.00,,,0.00,weatherlink.com 1.10,2013-08-22 21:59:00,
2013-08-22 13:14:00,56.9,54.0,29.71,ESE,110,9.0,10.0,89,0.00,,,0.00,weatherlink.com 1.10,2013-08-22 22:14:00,
2013-08-22 13:29:00,57.5,54.0,29.70,ESE,103,12.0,13.0,89,0.00,,,0.00,weatherlink.com 1.10,2013-08-22 22:29:00,
2013-08-22 13:44:00,57.7,54.0,29.71,SE,128,8.0,10.0,88,0.00,,,0.00,weatherlink.com 1.10,2013-08-22 22:44:00,
2013-08-22 13:59:00,57.8,54.0,29.71,ESE,110,5.0,12.0,87,0.00,,,0.00,weatherlink.com 1.10,2013-08-22 22:59:00,
2013-08-22 14:14:00,57.7,54.0,29.71,ESE,112,5.0,9.0,87,0.00,,,0.00,weatherlink.com 1.10,2013-08-22 23:14:00,
2013-08-22 14:29:00,57.6,54.0,29.71,ESE,111,2.0,6.0,87,0.00,,,0.00,weatherlink.com 1.10,2013-08-22 23:29:00,
2013-08-22 14:44:00,57.7,54.0,29.71,ESE,123,5.0,7.0,88,0.00,,,0.00,weatherlink.com 1.10,2013-08-22 23:44:00,
2013-08-22 14:59:00,57.6,54.0,29.71,ESE,107,6.0,9.0,87,0.00,,,0.00,weatherlink.com 1.10,2013-08-22 23:59:00,
2013-08-22 15:14:00,57.6,54.0,29.70,SE,134,5.0,9.0,87,0.00,,,0.00,weatherlink.com 1.10,2013-08-23 00:14:00,
2013-08-22 15:29:00,57.3,54.0,29.71,ESE,122,6.0,10.0,87,0.00,,,0.00,weatherlink.com 1.10,2013-08-23 00:29:00,
2013-08-22 15:44:00,57.0,54.0,29.71,East,96,3.0,9.0,88,0.00,,,0.00,weatherlink.com 1.10,2013-08-23 00:44:00,
2013-08-22 15:59:00,57.1,54.0,29.71,SE,136,4.0,9.0,88,0.00,,,0.00,weatherlink.com 1.10,2013-08-23 00:59:00,
2013-08-22 16:14:00,56.8,54.0,29.71,ENE,61,5.0,7.0,89,0.00,,,0.00,weatherlink.com 1.10,2013-08-23 01:14:00,
2013-08-22 16:29:00,56.5,54.0,29.71,SE,126,7.0,11.0,90,0.00,,,0.00,weatherlink.com 1.10,2013-08-23 01:29:00,
2013-08-22 16:44:00,56.5,54.0,29.71,ESE,113,6.0,11.0,90,0.00,,,0.00,weatherlink.com 1.10,2013-08-23 01:44:00,
2013-08-22 16:59:00,56.6,54.0,29.70,SE,126,3.0,14.0,89,0.00,,,0.00,weatherlink.com 1.10,2013-08-23 01:59:00,
2013-08-22 17:14:00,56.6,54.0,29.70,ESE,109,6.0,12.0,89,0.00,,,0.00,weatherlink.com 1.10,2013-08-23 02:14:00,
2013-08-22 17:29:00,56.6,54.0,29.70,ESE,115,6.0,11.0,89,0.00,,,0.00,weatherlink.com 1.10,2013-08-23 02:29:00,
2013-08-22 17:44:00,56.3,54.0,29.70,SE,129,7.0,11.0,90,0.00,,,0.00,weatherlink.com 1.10,2013-08-23 02:44:00,
2013-08-22 17:59:00,56.3,53.0,29.70,ESE,120,10.0,12.0,89,0.00,,,0.00,weatherlink.com 1.10,2013-08-23 02:59:00,
2013-08-22 18:14:00,56.3,54.0,29.70,ESE,117,11.0,12.0,90,0.00,,,0.00,weatherlink.com 1.10,2013-08-23 03:14:00,
2013-08-22 18:29:00,56.1,53.0,29.69,ESE,105,7.0,14.0,90,0.00,,,0.00,weatherlink.com 1.10,2013-08-23 03:29:00,
2013-08-22 18:44:00,56.1,53.0,29.69,SSE,155,9.0,16.0,90,0.00,,,0.00,weatherlink.com 1.10,2013-08-23 03:44:00,
2013-08-22 18:59:00,55.9,53.0,29.69,SW,217,6.0,15.0,90,0.00,,,0.00,weatherlink.com 1.10,2013-08-23 03:59:00,
2013-08-22 19:14:00,56.0,53.0,29.69,ENE,67,9.0,15.0,90,0.00,,,0.00,weatherlink.com 1.10,2013-08-23 04:14:00,
2013-08-22 19:29:00,56.0,53.0,29.69,SE,128,4.0,11.0,89,0.00,,,0.00,weatherlink.com 1.10,2013-08-23 04:29:00,
2013-08-22 19:44:00,55.8,53.0,29.68,SSE,151,3.0,14.0,90,0.00,,,0.00,weatherlink.com 1.10,2013-08-23 04:44:00,
2013-08-22 19:59:00,55.6,53.0,29.68,SE,130,5.0,13.0,91,0.00,,,0.00,weatherlink.com 1.10,2013-08-23 04:59:00,
2013-08-22 20:14:00,55.6,53.0,29.68,SSE,148,4.0,11.0,90,0.00,,,0.00,weatherlink.com 1.10,2013-08-23 05:14:00,
2013-08-22 20:29:00,55.7,53.0,29.68,ESE,104,5.0,14.0,90,0.00,,,0.00,weatherlink.com 1.10,2013-08-23 05:29:00,
2013-08-22 20:44:00,55.6,53.0,29.68,ESE,109,1.0,12.0,90,0.00,,,0.00,weatherlink.com 1.10,2013-08-23 05:44:00,
2013-08-22 20:59:00,55.5,53.0,29.68,SE,138,5.0,13.0,91,0.00,,,0.00,weatherlink.com 1.10,2013-08-23 05:59:00,
2013-08-22 21:14:00,55.6,53.0,29.68,East,89,4.0,9.0,91,0.00,,,0.00,weatherlink.com 1.10,2013-08-23 06:14:00,
2013-08-22 21:29:00,55.6,53.0,29.68,ESE,114,1.0,8.0,90,0.00,,,0.00,weatherlink.com 1.10,2013-08-23 06:29:00,
2013-08-22 21:44:00,55.6,53.0,29.68,SE,125,4.0,8.0,91,0.00,,,0.00,weatherlink.com 1.10,2013-08-23 06:44:00,
2013-08-22 21:59:00,55.9,53.0,29.68,ESE,114,1.0,9.0,90,0.00,,,0.00,weatherlink.com 1.10,2013-08-23 06:59:00,
2013-08-22 22:14:00,55.7,53.0,29.67,East,88,2.0,9.0,90,0.00,,,0.00,weatherlink.com 1.10,2013-08-23 07:14:00,
2013-08-22 22:30:00,55.8,53.0,29.67,SE,146,9.0,12.0,91,0.00,,,0.00,weatherlink.com 1.10,2013-08-23 07:30:00,
2013-08-22 22:44:00,55.7,53.0,29.68,ESE,119,5.0,10.0,91,0.00,,,0.00,weatherlink.com 1.10,2013-08-23 07:44:00,
2013-08-22 23:00:00,55.9,53.0,29.67,ENE,65,2.0,7.0,91,0.00,,,0.00,weatherlink.com 1.10,2013-08-23 08:00:00,
2013-08-22 23:15:00,56.6,54.0,29.68,SE,128,0.0,6.0,90,0.00,,,0.00,weatherlink.com 1.10,2013-08-23 08:15:00,
2013-08-22 23:30:00,57.4,54.0,29.67,SSE,148,4.0,12.0,89,0.00,,,0.00,weatherlink.com 1.10,2013-08-23 08:30:00,
2013-08-22 23:45:00,57.6,54.0,29.67,ESE,109,2.0,7.0,87,0.00,,,0.00,weatherlink.com 1.10,2013-08-23 08:45:00,